Hourly Weather Bolshie Kirilly

Today, 20 June, Sunday

Time Temperature Precipitation Wind Pressure Humidity
00:00 +19°C° 0 mm 2 mps 750 mmHg 93%
01:00 +18°C° 0 mm 2 mps 750 mmHg 94%
02:00 +18°C° 0 mm 2 mps 751 mmHg 95%
03:00 +18°C° 0 mm 2 mps 750 mmHg 94%
04:00 +19°C° 0 mm 2 mps 750 mmHg 94%
05:00 +20°C° 0 mm 1 mps 750 mmHg 93%
06:00 +21°C° 0 mm 2 mps 750 mmHg 86%
07:00 +23°C° 0 mm 2 mps 750 mmHg 79%
08:00 +25°C° 0 mm 3 mps 750 mmHg 73%
09:00 +26°C° 0 mm 3 mps 750 mmHg 67%
10:00 +27°C° 0 mm 3 mps 750 mmHg 62%
11:00 +28°C° 0 mm 3 mps 750 mmHg 56%
12:00 +28°C° 0 mm 3 mps 750 mmHg 54%
13:00 +29°C° 0 mm 3 mps 749 mmHg 51%
14:00 +29°C° 0 mm 3 mps 749 mmHg 49%
15:00 +29°C° 0 mm 2 mps 749 mmHg 52%
16:00 +29°C° 0 mm 2 mps 749 mmHg 55%
17:00 +28°C° 0 mm 2 mps 749 mmHg 58%
18:00 +26°C° 0 mm 2 mps 749 mmHg 65%
19:00 +24°C° 0 mm 2 mps 749 mmHg 72%
20:00 +21°C° 0 mm 2 mps 748 mmHg 79%
21:00 +20°C° 0 mm 2 mps 748 mmHg 83%
22:00 +19°C° 0 mm 2 mps 748 mmHg 86%
23:00 +18°C° 0 mm 2 mps 748 mmHg 89%

Tomorrow, 21 June, Monday

Time Temperature Precipitation Wind Pressure Humidity
00:00 +18°C° 0 mm 2 mps 748 mmHg 91%
01:00 +18°C° 0 mm 2 mps 748 mmHg 92%
02:00 +17°C° 0 mm 2 mps 748 mmHg 93%
03:00 +18°C° 0 mm 2 mps 748 mmHg 92%
04:00 +18°C° 0 mm 2 mps 748 mmHg 92%
05:00 +18°C° 0 mm 2 mps 748 mmHg 91%
06:00 +20°C° 0 mm 3 mps 748 mmHg 83%
07:00 +21°C° 0 mm 3 mps 748 mmHg 76%
08:00 +23°C° 0 mm 4 mps 748 mmHg 69%
09:00 +26°C° 0 mm 4 mps 748 mmHg 63%
10:00 +27°C° 0 mm 4 mps 748 mmHg 57%
11:00 +28°C° 0 mm 5 mps 747 mmHg 52%
12:00 +29°C° 0 mm 4 mps 747 mmHg 50%
13:00 +30°C° 0 mm 4 mps 747 mmHg 49%
14:00 +32°C° 0 mm 4 mps 747 mmHg 47%
15:00 +32°C° 0 mm 4 mps 747 mmHg 52%
16:00 +30°C° 0 mm 4 mps 747 mmHg 56%
17:00 +30°C° 0 mm 4 mps 747 mmHg 60%
18:00 +28°C° 0 mm 3 mps 747 mmHg 67%
19:00 +26°C° 0 mm 3 mps 747 mmHg 74%
20:00 +24°C° 0 mm 3 mps 747 mmHg 81%
21:00 +24°C° 0 mm 3 mps 747 mmHg 85%
22:00 +22°C° 0 mm 3 mps 747 mmHg 88%
23:00 +21°C° 0 mm 3 mps 747 mmHg 92%

Day after tomorrow, 22 June, Tuesday

Time Temperature Precipitation Wind Pressure Humidity
00:00 +20°C° 0 mm 3 mps 747 mmHg 93%
01:00 +20°C° 0 mm 3 mps 747 mmHg 95%
02:00 +20°C° 0 mm 3 mps 747 mmHg 96%
03:00 +20°C° 0 mm 3 mps 747 mmHg 95%
04:00 +20°C° 0 mm 3 mps 747 mmHg 93%
05:00 +20°C° 0 mm 2 mps 747 mmHg 92%
06:00 +22°C° 0 mm 3 mps 747 mmHg 83%
07:00 +25°C° 0 mm 4 mps 747 mmHg 74%
08:00 +26°C° 0 mm 4 mps 747 mmHg 66%
09:00 +28°C° 0 mm 4 mps 747 mmHg 60%
10:00 +29°C° 0 mm 5 mps 747 mmHg 55%
11:00 +32°C° 0 mm 5 mps 747 mmHg 50%
12:00 +32°C° 0 mm 5 mps 747 mmHg 49%
13:00 +33°C° 0 mm 5 mps 747 mmHg 48%
14:00 +34°C° 0 mm 5 mps 747 mmHg 47%
15:00 +33°C° 0 mm 4 mps 747 mmHg 50%
16:00 +33°C° 0 mm 4 mps 747 mmHg 54%
17:00 +32°C° 0 mm 4 mps 747 mmHg 57%
18:00 +29°C° 0 mm 3 mps 747 mmHg 65%
19:00 +27°C° 0 mm 3 mps 747 mmHg 73%
20:00 +25°C° 0 mm 3 mps 747 mmHg 81%
21:00 +24°C° 0 mm 3 mps 747 mmHg 85%
22:00 +23°C° 0 mm 2 mps 747 mmHg 89%
23:00 +23°C° 0 mm 2 mps 747 mmHg 93%

23 June, Wednesday

Time Temperature Precipitation Wind Pressure Humidity
00:00 +21°C° 0 mm 2 mps 747 mmHg 94%
01:00 +21°C° 0 mm 2 mps 747 mmHg 95%
02:00 +21°C° 0 mm 2 mps 748 mmHg 96%
03:00 +21°C° 0 mm 2 mps 748 mmHg 95%
04:00 +21°C° 0 mm 2 mps 748 mmHg 94%
05:00 +23°C° 0 mm 2 mps 748 mmHg 93%
06:00 +24°C° 0 mm 3 mps 748 mmHg 86%
07:00 +26°C° 0 mm 3 mps 748 mmHg 78%
08:00 +28°C° 0 mm 4 mps 748 mmHg 70%
09:00 +29°C° 0 mm 4 mps 748 mmHg 64%
10:00 +30°C° 0 mm 4 mps 748 mmHg 58%
11:00 +33°C° 0 mm 4 mps 748 mmHg 52%
12:00 +33°C° 0 mm 4 mps 748 mmHg 49%
13:00 +34°C° 0 mm 4 mps 748 mmHg 47%
14:00 +35°C° 0 mm 3 mps 748 mmHg 44%
15:00 +34°C° 0 mm 3 mps 748 mmHg 47%
16:00 +34°C° 0 mm 3 mps 748 mmHg 50%
17:00 +34°C° 0 mm 2 mps 748 mmHg 54%
18:00 +30°C° 0 mm 2 mps 748 mmHg 62%
19:00 +28°C° 0 mm 2 mps 748 mmHg 70%
20:00 +26°C° 0 mm 2 mps 748 mmHg 78%
21:00 +25°C° 0 mm 2 mps 748 mmHg 81%
22:00 +24°C° 0 mm 2 mps 748 mmHg 84%
23:00 +23°C° 0 mm 2 mps 748 mmHg 88%

24 June, Thursday

Time Temperature Precipitation Wind Pressure Humidity
00:00 +21°C° 0 mm 2 mps 748 mmHg 89%
01:00 +21°C° 0 mm 2 mps 748 mmHg 91%
02:00 +21°C° 0 mm 2 mps 748 mmHg 93%
03:00 +21°C° 0 mm 2 mps 748 mmHg 92%
04:00 +21°C° 0 mm 2 mps 749 mmHg 91%
05:00 +23°C° 0 mm 2 mps 749 mmHg 91%
06:00 +25°C° 0 mm 2 mps 749 mmHg 84%
07:00 +26°C° 0 mm 2 mps 749 mmHg 77%
08:00 +28°C° 0 mm 3 mps 749 mmHg 70%
09:00 +29°C° 0 mm 3 mps 749 mmHg 64%
10:00 +31°C° 0 mm 3 mps 749 mmHg 58%
11:00 +33°C° 0 mm 3 mps 749 mmHg 52%
12:00 +34°C° 0 mm 3 mps 748 mmHg 49%
13:00 +34°C° 0 mm 3 mps 748 mmHg 46%
14:00 +35°C° 0 mm 2 mps 748 mmHg 43%
15:00 +34°C° 0 mm 2 mps 748 mmHg 48%
16:00 +34°C° 0 mm 2 mps 748 mmHg 52%
17:00 +32°C° 0 mm 2 mps 748 mmHg 57%
18:00 +30°C° 0 mm 2 mps 747 mmHg 62%
19:00 +29°C° 0 mm 2 mps 747 mmHg 68%
20:00 +27°C° 0 mm 2 mps 747 mmHg 73%
21:00 +26°C° 0 mm 2 mps 747 mmHg 77%
22:00 +25°C° 0 mm 2 mps 747 mmHg 82%
23:00 +24°C° 0 mm 2 mps 747 mmHg 86%

25 June, Friday

Time Temperature Precipitation Wind Pressure Humidity
00:00 +24°C° 0 mm 2 mps 747 mmHg 89%
01:00 +23°C° 0 mm 2 mps 747 mmHg 91%
02:00 +23°C° 0 mm 2 mps 746 mmHg 93%
03:00 +23°C° 0 mm 2 mps 746 mmHg 92%
04:00 +23°C° 0 mm 2 mps 746 mmHg 92%
05:00 +24°C° 0 mm 2 mps 746 mmHg 91%
06:00 +25°C° 0 mm 2 mps 746 mmHg 84%
07:00 +27°C° 0 mm 3 mps 746 mmHg 76%
08:00 +29°C° 0 mm 3 mps 746 mmHg 69%
09:00 +30°C° 0 mm 4 mps 746 mmHg 62%
10:00 +32°C° 0 mm 4 mps 746 mmHg 56%
11:00 +33°C° 0 mm 4 mps 746 mmHg 49%
12:00 +34°C° 0 mm 4 mps 746 mmHg 48%
13:00 +34°C° 0 mm 4 mps 746 mmHg 47%
14:00 +34°C° 0 mm 4 mps 745 mmHg 45%
15:00 +34°C° 0 mm 4 mps 745 mmHg 49%
16:00 +33°C° 0 mm 4 mps 744 mmHg 53%
17:00 +33°C° 0 mm 4 mps 744 mmHg 57%
18:00 +29°C° 0.8 mm 3 mps 744 mmHg 68%
19:00 +26°C° 0.8 mm 3 mps 744 mmHg 78%
20:00 +23°C° 0.8 mm 2 mps 744 mmHg 89%
21:00 +23°C° 0.4 mm 2 mps 744 mmHg 90%
22:00 +21°C° 0.4 mm 2 mps 744 mmHg 91%
23:00 +21°C° 0.4 mm 2 mps 744 mmHg 92%
Show more